STARLINK-32918, 63087

Orbit data source: Space-Track

STARLINK-32918, 63087 is a payload satellite owned by SpaceX/Seattle (US) in LEO that was launched on Sun, 23 Feb 2025 UTC via an FALCON 9 launch vehicle from the Air Force Western Test Range (AFWTR). Payload-class satellites include a variety of spacecraft equipped with specific instruments for various scientific and technological missions. These include communications satellites like Starlink; space stations such as the ISS; scientific satellites like the Hubble; Earth observation satellites from companies like Planet Labs, Umbra, and HawkEye 360; GPS; miniature CubeSats for education and research; and military/defense satellites.

Loading next visibility...
Identifier
63087, 2025-037L
Orbit
LEO
Country
Flag of USUS
Related business
Manufacturer
SpaceX/Seattle
Mission
Operational Commercial Communications
Bus & Motor
STARLINK V2M, Unknown motor
Mass
730 kg wet, ~700 kg dry
Launch date (UTC)
2025-02-23 (1 year ago)
Launch vehicle
FALCON 9
Launch site
Air Force Western Test Range (AFWTR)
Object type
Payload
Rocket body
Debris
Shape & HBR
Box + 2 Pan, 17.7 m
Radar Cross Section
33.884 m², Large (>1 m²)

Expand to show TLE details & history
Last TLE update: 16 hours ago

TLE from 16 hours ago
0 STARLINK-32918
1 63087U 25037L   26171.19538810  .00004588  00000-0  39192-3 0  9995
2 63087  70.0010  96.1130 0003227 257.9076 102.1722 14.98339431 74049
Epoch: 2026-06-20T04:41Z
TLE epoch observation values (Epoch: 2026-06-20T04:41:21.531Z)
Latitude
-0.00001°
Longitude
117.35979°
Altitude
574.924 km
Speed
7.573 km/s
True Right ascension
06h 24m 27s
True Declination
0° 00' 00"
Sunlit
Object was in daylight at epoch
Visualization orbit readout
Latitude
Unknown
Longitude
Unknown
Altitude
Unknown
Speed
Unknown
Apparent Right ascension
Unknown
Apparent Declination
Unknown
Sunlit
N/A
Visualization observer readout
Local Sidereal Time
07:17:34
Azimuth
Unknown
Elevation
Unknown
Doppler factor
Unknown
Orbital elements
Apogee altitude
572.217 km
Perigee altitude
567.733 km
Semi-major axis
6,948.112 km
Eccentricity
0.00032
Inclination
70.001°
RAAN
96.113°
Arg. of periapsis
257.9076°
True anomaly
102.20834°
Mean anomaly
102.1722°
Eccentric anomaly
102.19027°
Mean motion
3.74751 °/min
Orbital period
96.06 mins
BSTAR
0.00039192
Loading maneuver chart data...
Computing Atmospheric mass density...
Loading historical data...
Loading historical data...
Loading historical data...
Loading historical data...
Loading historical data...
Loading historical data...
Loading historical data...

Documentation

Showing up to 5 results
|